Location: Austin
(30.3000°N, 97.7500°W)
Time: 05:09:29
(UTC-06:00)

Cosmos 2180 Rocket - Pass Details

Date: 03 March 2026
Orbit: 952 x 1004 km, 82.9° (Epoch: 5 March)

Event Time Altitude Azimuth Distance (km) Brightness Sun altitude
Rises 19:28:54 0° 353° (N) 3,636 7.6 -13.2°
Reaches altitude 10° 19:31:24 10° 353° (N) 2,684 6.9 -13.7°
Maximum altitude 19:37:32 86° 266° (W) 958 4.5 -15.1°
Drops below altitude 10° 19:43:38 10° 178° (S) 2,671 6.8 -16.4°
Sets 19:46:07 0° 177° (S) 3,617 7.4 -16.9°
